Weather reports worldwide

Advertisment
Barranda, Spain (8365): temperature & dewpoint: 07.08.2020 02:00:00 - 13.08.2020 02:00:00 (CEST)Barranda, Spain (8365): wind speed & gusts: 07.08.2020 02:00:00 - 13.08.2020 02:00:00 (CEST)Barranda, Spain (8365): wind direction: 07.08.2020 02:00:00 - 13.08.2020 02:00:00 (CEST)Barranda, Spain (8365): reduced air pressure: 07.08.2020 02:00:00 - 13.08.2020 02:00:00 (CEST)Barranda, Spain (8365): visibility: 07.08.2020 02:00:00 - 13.08.2020 02:00:00 (CEST)Barranda, Spain (8365): sunshine duration: 07.08.2020 02:00:00 - 13.08.2020 02:00:00 (CEST)Barranda, Spain (8365): precipitation: 07.08.2020 02:00:00 - 13.08.2020 02:00:00 (CEST)
Date & Time tt [°C] td [°C] ff [km/h] ff [kn] fx [km/h] fx [kn] dd ppp [hPa] vv [km] sd [min] rr [mm]
13.08.2020 02:00:00 - - - - - - - - - - -
13.08.2020 01:00:00 - - - - - - - - - - -
13.08.2020 00:00:00 - - - - - - - - - - -
12.08.2020 23:00:00 - - - - - - - - - - -
12.08.2020 22:00:00 - - - - - - - - - - -
12.08.2020 21:00:00 - - - - - - - - - - -
12.08.2020 20:00:00 - - - - - - - - - - -
12.08.2020 19:00:00 - - - - - - - - - - -
12.08.2020 18:00:00 - - - - - - - - - - -
12.08.2020 17:00:00 - - - - - - - - - - -
12.08.2020 16:00:00 - - - - - - - - - - -
12.08.2020 15:00:00 - - - - - - - - - - -
12.08.2020 14:00:00 - - - - - - - - - - -
12.08.2020 13:00:00 - - - - - - - - - - -
12.08.2020 12:00:00 - - - - - - - - - - -
12.08.2020 11:00:00 - - - - - - - - - - -
12.08.2020 10:00:00 - - - - - - - - - - -
12.08.2020 09:00:00 - - - - - - - - - - -
12.08.2020 08:00:00 - - - - - - - - - - -
12.08.2020 07:00:00 - - - - - - - - - - -
12.08.2020 06:00:00 - - - - - - - - - - -
12.08.2020 05:00:00 - - - - - - - - - - -
12.08.2020 04:00:00 - - - - - - - - - - -
12.08.2020 03:00:00 - - - - - - - - - - -
12.08.2020 02:00:00 - - - - - - - - - - -
12.08.2020 01:00:00 - - - - - - - - - - -
12.08.2020 00:00:00 - - - - - - - - - - -
11.08.2020 23:00:00 - - - - - - - - - - -
11.08.2020 22:00:00 - - - - - - - - - - -
11.08.2020 21:00:00 - - - - - - - - - - -
11.08.2020 20:00:00 - - - - - - - - - - -
11.08.2020 19:00:00 - - - - - - - - - - -
11.08.2020 18:00:00 - - - - - - - - - - -
11.08.2020 17:00:00 - - - - - - - - - - -
11.08.2020 16:00:00 - - - - - - - - - - -
11.08.2020 15:00:00 - - - - - - - - - - -
11.08.2020 14:00:00 - - - - - - - - - - -
11.08.2020 13:00:00 - - - - - - - - - - -
11.08.2020 12:00:00 - - - - - - - - - - -
11.08.2020 11:00:00 - - - - - - - - - - -
11.08.2020 10:00:00 - - - - - - - - - - -
11.08.2020 09:00:00 - - - - - - - - - - -
11.08.2020 08:00:00 - - - - - - - - - - -
11.08.2020 07:00:00 - - - - - - - - - - -
11.08.2020 06:00:00 - - - - - - - - - - -
11.08.2020 05:00:00 - - - - - - - - - - -
11.08.2020 04:00:00 - - - - - - - - - - -
11.08.2020 03:00:00 - - - - - - - - - - -
11.08.2020 02:00:00 - - - - - - - - - - -
11.08.2020 01:00:00 - - - - - - - - - - -
11.08.2020 00:00:00 - - - - - - - - - - -
10.08.2020 23:00:00 - - - - - - - - - - -
10.08.2020 22:00:00 - - - - - - - - - - -
10.08.2020 21:00:00 - - - - - - - - - - -
10.08.2020 20:00:00 - - - - - - - - - - -
10.08.2020 19:00:00 - - - - - - - - - - -
10.08.2020 18:00:00 - - - - - - - - - - -
10.08.2020 17:00:00 - - - - - - - - - - -
10.08.2020 16:00:00 - - - - - - - - - - -
10.08.2020 15:00:00 - - - - - - - - - - -
10.08.2020 14:00:00 - - - - - - - - - - -
10.08.2020 13:00:00 - - - - - - - - - - -
10.08.2020 12:00:00 - - - - - - - - - - -
10.08.2020 11:00:00 - - - - - - - - - - -
10.08.2020 10:00:00 - - - - - - - - - - -
10.08.2020 09:00:00 - - - - - - - - - - -
10.08.2020 08:00:00 - - - - - - - - - - -
10.08.2020 07:00:00 16,6 9,0 3 2 8 4 W 1015,2 20 0 0,0
10.08.2020 06:00:00 17,4 9,6 3 2 10 5 WNW 1015,0 20 0 0,0
10.08.2020 05:00:00 20,1 8,4 11 6 18 10 WSW 1014,5 20 0 0,0
10.08.2020 04:00:00 19,7 9,6 6 4 10 5 WSW 1015,2 20 0 0,0
10.08.2020 03:00:00 20,1 11,0 5 3 11 6 WNW 1015,1 20 0 0,0
10.08.2020 02:00:00 21,9 10,6 5 3 9 5 E 1015,0 20 0 -
10.08.2020 01:00:00 23,7 10,8 3 2 12 6 SSW 1013,9 20 0 0,0
10.08.2020 00:00:00 25,8 9,6 7 4 13 7 W 1013,5 20 0 0,0
09.08.2020 23:00:00 26,3 9,6 3 2 19 10 W 1013,6 20 0 0,0
09.08.2020 22:00:00 29,7 8,1 10 5 19 10 W 1012,1 20 0 0,0
09.08.2020 21:00:00 31,5 7,8 8 5 23 12 WSW 1011,1 20 0 0,0
09.08.2020 20:00:00 34,0 7,8 10 5 26 14 SSW 1010,2 20 39 -
09.08.2020 19:00:00 36,3 6,4 11 6 25 13 S 1009,7 20 59 0,0
09.08.2020 18:00:00 37,5 3,2 5 3 35 19 S 1009,6 20 55 0,0
09.08.2020 17:00:00 37,7 4,6 18 10 32 18 E 1009,9 20 47 0,0
09.08.2020 16:00:00 38,3 2,7 16 9 31 17 ENE 1010,4 20 60 0,0
09.08.2020 15:00:00 38,6 2,9 13 7 22 12 ENE 1010,8 20 60 0,0
09.08.2020 14:00:00 37,6 4,5 8 5 19 10 ENE 1012,0 20 60 -
09.08.2020 13:00:00 36,3 6,4 5 3 14 8 E 1012,7 20 60 0,0
09.08.2020 12:00:00 34,1 7,1 6 4 20 11 E 1013,6 20 60 0,0
09.08.2020 11:00:00 32,7 6,8 14 7 23 12 E 1013,8 20 60 0,0
09.08.2020 10:00:00 29,9 3,8 9 5 15 8 WSW 1014,7 20 60 0,0
09.08.2020 09:00:00 24,0 3,8 10 6 15 8 WSW 1016,3 20 52 0,0
09.08.2020 08:00:00 20,8 3,9 9 5 15 8 W 1016,9 20 0 -
09.08.2020 07:00:00 20,6 5,8 6 3 18 10 SSE 1016,8 20 0 0,0
09.08.2020 06:00:00 21,0 6,5 8 5 20 11 W 1016,9 20 0 0,0
09.08.2020 05:00:00 21,3 8,3 11 6 16 9 WSW 1017,2 20 0 0,0
09.08.2020 04:00:00 19,6 9,8 4 2 10 5 W 1017,8 20 0 0,0
09.08.2020 03:00:00 20,4 11,3 3 2 13 7 W 1017,7 20 0 0,0
09.08.2020 02:00:00 21,4 11,4 4 2 8 4 WNW 1017,7 20 0 -
09.08.2020 01:00:00 22,0 11,1 4 2 8 4 W 1018,2 20 0 0,0
09.08.2020 00:00:00 23,9 10,9 2 1 13 7 WSW 1018,2 20 0 0,0
08.08.2020 23:00:00 24,1 10,8 2 1 8 4 NNE 1018,3 20 0 0,0
08.08.2020 22:00:00 26,0 10,2 4 2 8 5 WNW 1016,9 20 0 0,0
08.08.2020 21:00:00 29,3 9,4 5 3 16 8 NE 1015,3 20 0 0,0
08.08.2020 20:00:00 31,4 9,0 6 3 16 9 NE 1014,6 20 0 -
08.08.2020 19:00:00 33,2 8,0 7 4 28 15 NNE 1013,9 20 29 0,0
08.08.2020 18:00:00 36,0 7,1 13 7 31 17 ENE 1013,3 20 60 0,0
08.08.2020 17:00:00 37,2 4,1 13 7 26 14 ENE 1013,5 20 49 0,0
08.08.2020 16:00:00 37,5 5,5 13 7 29 16 ENE 1014,0 20 60 0,0
08.08.2020 15:00:00 38,6 4,1 8 5 19 10 E 1014,1 20 60 0,0
08.08.2020 14:00:00 36,6 4,8 9 5 26 14 ENE 1015,1 20 60 -
08.08.2020 13:00:00 38,9 6,5 8 5 21 12 SSE 1014,9 20 60 0,0
08.08.2020 12:00:00 35,6 1,9 10 5 20 11 SSW 1016,4 20 60 0,0
08.08.2020 11:00:00 31,9 8,3 3 2 8 5 SSE 1017,7 20 60 0,0
08.08.2020 10:00:00 28,8 9,6 4 2 8 5 E 1018,5 20 60 0,0
08.08.2020 09:00:00 23,5 8,8 5 3 12 6 WSW 1019,6 20 55 0,0
08.08.2020 08:00:00 17,7 8,8 3 2 14 7 WSW 1020,6 20 0 -
08.08.2020 07:00:00 18,7 8,1 4 2 18 10 W 1020,1 20 0 0,0
08.08.2020 06:00:00 19,6 7,7 10 5 18 10 W 1019,7 20 0 0,0
08.08.2020 05:00:00 19,4 8,1 8 4 16 9 W 1020,1 20 0 0,0
08.08.2020 04:00:00 20,0 10,2 6 4 15 8 W 1020,0 20 0 0,0
08.08.2020 03:00:00 19,4 10,9 4 2 7 4 WNW 1020,3 20 0 0,0
08.08.2020 02:00:00 21,5 11,6 3 1 13 7 N 1019,8 20 0 -
08.08.2020 01:00:00 22,5 11,2 4 2 10 5 W 1019,4 20 0 0,0
08.08.2020 00:00:00 23,9 11,2 2 1 8 5 ENE 1019,2 20 0 0,0
07.08.2020 23:00:00 25,9 10,5 3 2 13 7 SSW 1018,2 20 0 0,0
07.08.2020 22:00:00 27,2 9,9 7 4 12 7 WSW 1016,7 20 0 0,0
07.08.2020 21:00:00 28,2 10,9 4 2 13 7 NW 1015,9 20 0 0,0
07.08.2020 20:00:00 31,4 9,6 6 4 16 8 ENE 1014,6 20 20 -
07.08.2020 19:00:00 35,2 8,1 8 4 21 12 S 1013,7 20 56 0,0
07.08.2020 18:00:00 35,5 7,6 11 6 24 13 E 1013,6 20 59 0,0
07.08.2020 17:00:00 36,1 6,2 11 6 21 11 E 1013,8 20 49 0,0
07.08.2020 16:00:00 36,1 6,2 7 4 21 11 NE 1014,2 20 60 0,0
07.08.2020 15:00:00 35,2 7,3 8 4 20 11 ENE 1015,1 20 60 0,0
07.08.2020 14:00:00 34,4 6,7 6 4 19 11 ENE 1015,4 20 60 -
07.08.2020 13:00:00 32,1 7,7 9 5 21 12 E 1016,1 20 60 0,0
07.08.2020 12:00:00 30,1 10,6 7 4 15 8 E 1016,8 20 60 0,0
07.08.2020 11:00:00 27,1 12,0 7 4 13 7 ESE 1017,6 20 60 0,0
07.08.2020 10:00:00 25,2 12,7 2 1 8 4 E 1017,8 20 60 0,0
07.08.2020 09:00:00 22,5 13,9 3 2 9 5 ESE 1018,2 20 42 0,0
07.08.2020 08:00:00 17,3 12,4 3 1 5 3 NW 1019,3 20 0 -
07.08.2020 07:00:00 17,3 12,4 4 2 9 5 WNW 1019,0 20 0 0,0
07.08.2020 06:00:00 17,3 13,1 3 2 9 5 WNW 1018,7 20 0 0,0
07.08.2020 05:00:00 18,3 12,7 3 2 11 6 WNW 1018,4 20 0 0,0
07.08.2020 04:00:00 19,1 13,1 3 2 13 7 NW 1018,3 20 0 0,0
07.08.2020 03:00:00 19,1 13,3 5 3 9 5 W 1018,6 20 0 0,0
07.08.2020 02:00:00 19,7 13,9 2 1 9 5 WSW 1018,6 20 0 -

tt = temperature
td = dewpoint
ff = wind speed
fx = gusts
dd = wind direction
ppp = reduced air pressure
vv = visibility
sd = sunshine duration
rr = precipitation

Next stations